Darstellungsparameter: Aktuell verwendete Einstellungen:
Skalierung der Graphiken ... ?
xyx+y,   Skalierungsfaktor:      Skalierung: Modus: x, Faktor: 1
Darstellungszeitraum ... ?
Vom - - bis: - -   Zeitraum: 20.01.2021 - 20.01.2021
Min/Max/Avg-Anzeige ... ?
Zeige MMA aktuell
Zeige MMA Monat
Zeige MMA alles
Zeige --A aktuell
Zeige --A Monat
Zeige --A alles
Keine MMA-Anzeige
MMA:
Average (ber die Originaldaten)
MMA-Basis: 20.01.2021 - 20.01.2021
Quicknavigation für Darstellung... ?
Tage:      1T, 2T, 3T, 5T -1T -2T -3T -5T +1T +2T +3T +5T
Wochen: 1W, 2W, 3W -1W -2W -3W +1W +2W +3W
Monate: 1M, 3M, 6M -1M -3M -6M +1M +3M +6M
Jahre:    1J, 3J, 5J, 10J -1J -3J -5J -10J +1J +3J +5J +10J
Nutze für die Darstellung ... ?
Originaldaten oder Mittelwerte auf ...
Stundenbasis Tagesbasis Wochenbasis
Monatsbasis Jahresbasis      Datenbasis: Original-Daten
Darstellen als:
Statistik (Auto) Statistik J:M      Darstellung:

Der gewünschte Datumsbereich war nicht gültig/verfügbar und wurde korrigiert....
Das angegebene Enddatum (24.03.2021 23:59:59) liegt in der Zukunft.
Das angegebene Startdatum (24.03.2021 00:00:00) liegt in der Zukunft.


Zur Graphik,    zurück zur Übersicht aller Sensoren.
 
Tabellarische Datenbersicht: ?
 
Sensor: Nr:Datum:Temp:Abs-Feuchte:Windchill:Wind:
Aussen-T/F 1 20-01-2021 01:00:00 4.6 C 5.23 g/m*3 4.6 C 1.6 km/h
2 20-01-2021 01:05:00 4.6 C 5.23 g/m*3 4.6 C 1.6 km/h
3 20-01-2021 01:10:00 4.5 C 5.19 g/m*3 4.5 C 1.6 km/h
4 20-01-2021 01:15:00 4.5 C 5.19 g/m*3 4.5 C 0 km/h
5 20-01-2021 01:20:00 4.4 C 5.16 g/m*3 4.4 C 1.6 km/h
6 20-01-2021 01:25:00 4.4 C 5.16 g/m*3 4.4 C 0 km/h
7 20-01-2021 01:30:00 4.4 C 5.22 g/m*3 4.4 C 0 km/h
8 20-01-2021 01:35:00 4.4 C 5.29 g/m*3 4.4 C 0 km/h
9 20-01-2021 01:40:00 4.3 C 5.19 g/m*3 4.3 C 0 km/h
10 20-01-2021 01:45:00 4.2 C 5.22 g/m*3 4.2 C 0 km/h
11 20-01-2021 01:50:00 4.2 C 5.22 g/m*3 4.2 C 1.6 km/h
12 20-01-2021 01:55:00 4.1 C 5.25 g/m*3 4.1 C 0 km/h
13 20-01-2021 02:00:00 4 C 5.28 g/m*3 4 C 0 km/h
14 20-01-2021 02:05:00 3.9 C 5.24 g/m*3 3.9 C 3.2 km/h
15 20-01-2021 02:10:00 3.8 C 5.21 g/m*3 3.8 C 1.6 km/h
16 20-01-2021 02:15:00 3.8 C 5.14 g/m*3 3.8 C 1.6 km/h
17 20-01-2021 02:20:00 3.8 C 5.21 g/m*3 3.8 C 3.2 km/h
18 20-01-2021 02:25:00 3.8 C 5.27 g/m*3 3.8 C 1.6 km/h
19 20-01-2021 02:30:00 3.7 C 5.23 g/m*3 3.7 C 1.6 km/h
20 20-01-2021 02:35:00 3.6 C 5.2 g/m*3 3.6 C 1.6 km/h
21 20-01-2021 02:40:00 3.5 C 5.16 g/m*3 3.5 C 1.6 km/h
22 20-01-2021 02:45:00 3.3 C 5.16 g/m*3 3.3 C 3.2 km/h
23 20-01-2021 02:50:00 3.2 C 5.12 g/m*3 3.2 C 3.2 km/h
24 20-01-2021 02:55:00 3 C 5.05 g/m*3 3 C 3.2 km/h
25 20-01-2021 03:00:00 3 C 5.17 g/m*3 3 C 3.2 km/h
Sensor: Nr:Datum:Temp:Abs-Feuchte:Windchill:Wind:
Aussen-T/F 26 20-01-2021 03:05:00 3.1 C 5.21 g/m*3 3.1 C 3.2 km/h
27 20-01-2021 03:10:00 3.2 C 5.24 g/m*3 3.2 C 3.2 km/h
28 20-01-2021 03:15:00 3.2 C 5.24 g/m*3 3.2 C 4.8 km/h
29 20-01-2021 03:20:00 3.3 C 5.34 g/m*3 3.3 C 3.2 km/h
30 20-01-2021 03:25:00 3.4 C 5.37 g/m*3 3.4 C 3.2 km/h
31 20-01-2021 03:30:00 3.6 C 5.39 g/m*3 1.46 C 8.1 km/h
32 20-01-2021 03:35:00 3.7 C 5.36 g/m*3 3.7 C 4.8 km/h
33 20-01-2021 03:40:00 4.3 C 5.32 g/m*3 0.97 C 14.5 km/h
34 20-01-2021 03:45:00 4.6 C 5.43 g/m*3 4.6 C 1.6 km/h
35 20-01-2021 03:50:00 4.7 C 5.46 g/m*3 3.25 C 6.4 km/h
36 20-01-2021 03:55:00 4.8 C 5.36 g/m*3 2.49 C 9.7 km/h
37 20-01-2021 04:00:00 4.8 C 5.36 g/m*3 4.8 C 3.2 km/h
38 20-01-2021 04:05:00 4.8 C 5.43 g/m*3 4.8 C 0 km/h
39 20-01-2021 04:10:00 4.8 C 5.36 g/m*3 4.8 C 1.6 km/h
40 20-01-2021 04:15:00 4.8 C 5.3 g/m*3 4.8 C 3.2 km/h
41 20-01-2021 04:20:00 4.8 C 5.36 g/m*3 4.8 C 1.6 km/h
42 20-01-2021 04:25:00 4.8 C 5.36 g/m*3 4.8 C 1.6 km/h
43 20-01-2021 04:30:00 4.8 C 5.36 g/m*3 4.8 C 1.6 km/h
44 20-01-2021 04:35:00 4.9 C 5.33 g/m*3 4.9 C 4.8 km/h
45 20-01-2021 04:40:00 5 C 5.37 g/m*3 5 C 3.2 km/h
46 20-01-2021 04:45:00 5 C 5.37 g/m*3 5 C 3.2 km/h
47 20-01-2021 04:50:00 5 C 5.37 g/m*3 5 C 4.8 km/h
48 20-01-2021 04:55:00 5 C 5.37 g/m*3 5 C 0 km/h
49 20-01-2021 05:00:00 5 C 5.37 g/m*3 3.59 C 6.4 km/h
50 20-01-2021 05:05:00 5 C 5.37 g/m*3 5 C 3.2 km/h
Sensor: Nr:Datum:Temp:Abs-Feuchte:Windchill:Wind:
Aussen-T/F 51 20-01-2021 05:10:00 5.1 C 5.4 g/m*3 5.1 C 1.6 km/h
52 20-01-2021 05:15:00 5.1 C 5.4 g/m*3 3.71 C 6.4 km/h
53 20-01-2021 05:20:00 5.1 C 5.4 g/m*3 5.1 C 4.8 km/h
54 20-01-2021 05:25:00 5.1 C 5.4 g/m*3 5.1 C 1.6 km/h
55 20-01-2021 05:30:00 5.1 C 5.47 g/m*3 5.1 C 4.8 km/h
56 20-01-2021 05:35:00 5.1 C 5.4 g/m*3 5.1 C 0 km/h
57 20-01-2021 05:40:00 5.1 C 5.4 g/m*3 5.1 C 3.2 km/h
58 20-01-2021 05:45:00 5.1 C 5.47 g/m*3 5.1 C 4.8 km/h
59 20-01-2021 05:50:00 5.1 C 5.47 g/m*3 5.1 C 4.8 km/h
60 20-01-2021 05:55:00 5.1 C 5.54 g/m*3 3.71 C 6.4 km/h
61 20-01-2021 06:00:00 5.1 C 5.61 g/m*3 5.1 C 4.8 km/h
62 20-01-2021 06:05:00 5 C 5.57 g/m*3 5 C 4.8 km/h
63 20-01-2021 06:10:00 5 C 5.64 g/m*3 5 C 4.8 km/h
64 20-01-2021 06:15:00 4.9 C 5.6 g/m*3 4.9 C 4.8 km/h
65 20-01-2021 06:20:00 4.9 C 5.6 g/m*3 4.9 C 4.8 km/h
66 20-01-2021 06:25:00 4.9 C 5.67 g/m*3 4.9 C 4.8 km/h
67 20-01-2021 06:30:00 4.9 C 5.67 g/m*3 4.9 C 3.2 km/h
68 20-01-2021 06:35:00 4.8 C 5.63 g/m*3 4.8 C 1.6 km/h
69 20-01-2021 06:40:00 4.8 C 5.63 g/m*3 4.8 C 4.8 km/h
70 20-01-2021 06:45:00 4.8 C 5.63 g/m*3 4.8 C 1.6 km/h
71 20-01-2021 06:50:00 4.7 C 5.6 g/m*3 4.7 C 1.6 km/h
72 20-01-2021 06:55:00 4.7 C 5.53 g/m*3 4.7 C 1.6 km/h
73 20-01-2021 07:00:00 4.7 C 5.53 g/m*3 4.7 C 3.2 km/h
74 20-01-2021 07:05:00 4.7 C 5.6 g/m*3 4.7 C 3.2 km/h
75 20-01-2021 07:10:00 4.7 C 5.66 g/m*3 4.7 C 3.2 km/h
Sensor: Nr:Datum:Temp:Abs-Feuchte:Windchill:Wind:
Aussen-T/F 76 20-01-2021 07:15:00 4.7 C 5.6 g/m*3 2.76 C 8.1 km/h
77 20-01-2021 07:20:00 4.7 C 5.6 g/m*3 4.7 C 3.2 km/h
78 20-01-2021 07:25:00 4.7 C 5.6 g/m*3 4.7 C 1.6 km/h
79 20-01-2021 07:30:00 4.7 C 5.6 g/m*3 4.7 C 1.6 km/h
80 20-01-2021 07:35:00 4.7 C 5.66 g/m*3 4.7 C 3.2 km/h
81 20-01-2021 07:40:00 4.7 C 5.66 g/m*3 4.7 C 3.2 km/h
82 20-01-2021 07:45:00 4.6 C 5.62 g/m*3 4.6 C 3.2 km/h
83 20-01-2021 07:50:00 4.6 C 5.62 g/m*3 4.6 C 4.8 km/h
84 20-01-2021 07:55:00 4.5 C 5.59 g/m*3 4.5 C 1.6 km/h
85 20-01-2021 08:00:00 4.4 C 5.62 g/m*3 4.4 C 3.2 km/h
86 20-01-2021 08:05:00 4.4 C 5.55 g/m*3 4.4 C 3.2 km/h
87 20-01-2021 08:10:00 4.4 C 5.55 g/m*3 4.4 C 0 km/h
88 20-01-2021 08:15:00 4.4 C 5.55 g/m*3 4.4 C 1.6 km/h
89 20-01-2021 08:20:00 4.3 C 5.58 g/m*3 4.3 C 0 km/h
90 20-01-2021 08:25:00 4.3 C 5.51 g/m*3 4.3 C 3.2 km/h
91 20-01-2021 08:30:00 4.3 C 5.51 g/m*3 4.3 C 0 km/h
92 20-01-2021 08:35:00 4.3 C 5.51 g/m*3 4.3 C 0 km/h
93 20-01-2021 08:40:00 4.4 C 5.62 g/m*3 4.4 C 3.2 km/h
94 20-01-2021 08:45:00 4.3 C 5.51 g/m*3 4.3 C 4.8 km/h
95 20-01-2021 08:50:00 4.3 C 5.58 g/m*3 4.3 C 0 km/h
96 20-01-2021 08:55:00 4.3 C 5.51 g/m*3 4.3 C 1.6 km/h
97 20-01-2021 09:00:00 4.3 C 5.58 g/m*3 4.3 C 1.6 km/h
98 20-01-2021 09:05:00 4.3 C 5.51 g/m*3 4.3 C 4.8 km/h
99 20-01-2021 09:10:00 4.4 C 5.55 g/m*3 4.4 C 0 km/h
100 20-01-2021 09:15:00 4.4 C 5.55 g/m*3 4.4 C 0 km/h
Sensor: Nr:Datum:Temp:Abs-Feuchte:Windchill:Wind:
Aussen-T/F 101 20-01-2021 09:20:00 4.4 C 5.48 g/m*3 4.4 C 4.8 km/h
102 20-01-2021 09:25:00 4.5 C 5.59 g/m*3 4.5 C 1.6 km/h
103 20-01-2021 09:30:00 4.5 C 5.59 g/m*3 4.5 C 1.6 km/h
104 20-01-2021 09:35:00 4.5 C 5.59 g/m*3 4.5 C 0 km/h
105 20-01-2021 09:40:00 4.6 C 5.62 g/m*3 4.6 C 0 km/h
106 20-01-2021 09:45:00 4.6 C 5.56 g/m*3 4.6 C 1.6 km/h
107 20-01-2021 09:50:00 4.7 C 5.66 g/m*3 4.7 C 1.6 km/h
108 20-01-2021 09:55:00 4.7 C 5.66 g/m*3 4.7 C 0 km/h
109 20-01-2021 10:00:00 4.8 C 5.7 g/m*3 4.8 C 0 km/h
110 20-01-2021 10:05:00 4.8 C 5.63 g/m*3 4.8 C 0 km/h
111 20-01-2021 10:10:00 4.9 C 5.67 g/m*3 4.9 C 0 km/h
112 20-01-2021 10:15:00 5 C 5.78 g/m*3 5 C 0 km/h
113 20-01-2021 10:20:00 5.1 C 5.81 g/m*3 5.1 C 0 km/h
114 20-01-2021 10:25:00 5.1 C 5.81 g/m*3 5.1 C 0 km/h
115 20-01-2021 10:30:00 5.2 C 5.85 g/m*3 5.2 C 0 km/h
116 20-01-2021 10:35:00 5.3 C 5.89 g/m*3 5.3 C 0 km/h
117 20-01-2021 10:40:00 5.3 C 5.89 g/m*3 5.3 C 0 km/h
118 20-01-2021 10:45:00 5.4 C 5.93 g/m*3 5.4 C 0 km/h
119 20-01-2021 10:50:00 5.6 C 5.94 g/m*3 5.6 C 0 km/h
120 20-01-2021 10:55:00 5.6 C 5.87 g/m*3 5.6 C 1.6 km/h
121 20-01-2021 11:00:00 5.7 C 5.69 g/m*3 5.7 C 0 km/h
122 20-01-2021 11:05:00 5.8 C 5.73 g/m*3 5.8 C 0 km/h
123 20-01-2021 11:10:00 5.9 C 5.84 g/m*3 5.9 C 0 km/h
124 20-01-2021 11:15:00 6 C 5.88 g/m*3 6 C 0 km/h
125 20-01-2021 11:20:00 6.1 C 5.84 g/m*3 6.1 C 0 km/h
Sensor: Nr:Datum:Temp:Abs-Feuchte:Windchill:Wind:
Aussen-T/F 126 20-01-2021 11:25:00 6.2 C 5.88 g/m*3 6.2 C 0 km/h
127 20-01-2021 11:30:00 6.3 C 5.85 g/m*3 6.3 C 0 km/h
128 20-01-2021 11:35:00 6.4 C 5.81 g/m*3 6.4 C 0 km/h
129 20-01-2021 11:40:00 6.5 C 5.85 g/m*3 6.5 C 0 km/h
130 20-01-2021 11:45:00 6.6 C 5.81 g/m*3 6.6 C 0 km/h
131 20-01-2021 11:50:00 6.8 C 5.89 g/m*3 6.8 C 0 km/h
132 20-01-2021 11:55:00 6.8 C 5.89 g/m*3 6.8 C 3.2 km/h
133 20-01-2021 12:00:00 6.9 C 6 g/m*3 6.9 C 0 km/h
134 20-01-2021 12:05:00 7.1 C 6.08 g/m*3 7.1 C 0 km/h
135 20-01-2021 12:10:00 7.1 C 6.08 g/m*3 7.1 C 0 km/h
136 20-01-2021 12:15:00 7.2 C 6.12 g/m*3 7.2 C 0 km/h
137 20-01-2021 12:20:00 7.3 C 6 g/m*3 7.3 C 3.2 km/h
138 20-01-2021 12:25:00 7.4 C 6.12 g/m*3 7.4 C 0 km/h
139 20-01-2021 12:30:00 7.4 C 6.12 g/m*3 7.4 C 1.6 km/h
140 20-01-2021 12:35:00 7.6 C 6.2 g/m*3 7.6 C 1.6 km/h
141 20-01-2021 12:40:00 7.6 C 6.04 g/m*3 7.6 C 1.6 km/h
142 20-01-2021 12:45:00 7.7 C 6.16 g/m*3 7.7 C 4.8 km/h
143 20-01-2021 12:50:00 7.8 C 6.2 g/m*3 7.8 C 1.6 km/h
144 20-01-2021 12:55:00 7.8 C 6.2 g/m*3 7.8 C 1.6 km/h
145 20-01-2021 13:00:00 7.9 C 6.24 g/m*3 7.9 C 0 km/h
146 20-01-2021 13:05:00 8 C 6.28 g/m*3 8 C 0 km/h
147 20-01-2021 13:10:00 8.1 C 6.41 g/m*3 8.1 C 1.6 km/h
148 20-01-2021 13:15:00 8.2 C 6.45 g/m*3 8.2 C 0 km/h
149 20-01-2021 13:20:00 8.2 C 6.53 g/m*3 8.2 C 0 km/h
150 20-01-2021 13:25:00 8.3 C 6.49 g/m*3 8.3 C 0 km/h
Sensor: Nr:Datum:Temp:Abs-Feuchte:Windchill:Wind:
Aussen-T/F 151 20-01-2021 13:30:00 8.4 C 6.45 g/m*3 8.4 C 0 km/h
152 20-01-2021 13:35:00 8.5 C 6.49 g/m*3 8.5 C 0 km/h
153 20-01-2021 13:40:00 8.6 C 6.44 g/m*3 8.6 C 3.2 km/h
154 20-01-2021 13:45:00 8.7 C 6.49 g/m*3 8.7 C 1.6 km/h
155 20-01-2021 13:50:00 8.8 C 6.53 g/m*3 8.8 C 3.2 km/h
156 20-01-2021 13:55:00 8.9 C 6.66 g/m*3 8.9 C 1.6 km/h
157 20-01-2021 14:00:00 8.9 C 6.48 g/m*3 8.9 C 4.8 km/h

Legende:
   Min
   Max


Maximal/Minimal-Werte vom 20.01.2021 - 20.01.2021

Sensor Min Max Avg
Temp
(Aussen-T/F)
3 °C
20-01-2021  02:55:00
8.9 °C
20-01-2021  13:55:00
5.2 °C
Abs-Feuchte
(Aussen-T/F)
5.05 g/m*3
20-01-2021  02:55:00
6.66 g/m*3
20-01-2021  13:55:00
5.59 g/m*3
Windchill
(Aussen-T/F)
0.97 C
20-01-2021  03:40:00
8.9 C
20-01-2021  13:55:00
5.07 C

Die Daten stammen von einer Davis Vantage Pro 2 Wetter-Station und werden unter Linux mit der Software wview2wettercgi und aufbereitet. Alle Angaben erfolgen ohne Gewähr für ihre Vollständigkeit oder Richtigkeit.
Kontakt: Rainer Krienke krienke@uni-koblenz.de . Meine Webseiten an der Uni Koblenz oder privat.
Version: $Revision: 0.78 $